{"data":{"norad_id":66582,"epoch":"2026-09-20T11:32:12.119712Z","epoch_age_seconds":88366,"freshness":"FRESH","line1":"1 66582U 25268AB  26263.48069583  .00018618  00000+0  68423-3 0  9991","line2":"2 66582  43.0041 326.7134 0001685 279.0271  81.0390 15.27586793 47752","mean_motion":15.27586793,"eccentricity":0.0001685,"inclination_deg":43.0041,"raan_deg":326.7134,"arg_perigee_deg":279.0271,"mean_anomaly_deg":81.039,"bstar":0.00068423,"rev_number":4775,"period_min":94.266329520433,"perigee_km":481.87264899947,"apogee_km":484.18486185905,"semimajor_km":6861.1657554293,"source":"CELESTRAK","updated_at":"2026-09-21T09:00:35.974799Z"}}